DM3FAM-13 Weather Reports


Display with metric or nautical units.
time (UTC)temp
F
wind
direction
speed
MPH
gust
MPH
rain 1hr
in
rain 24hr
in
rain mn
in
humidity
%
barometer
mb
20260507135030 57 32 1.0 4.0 0.00 0.84 0.40 70 1015.1
20260507134030 57 194 1.0 3.0 0.00 0.85 0.40 70 1015.3
20260507133030 56 37 1.0 4.0 0.00 0.87 0.40 72 1015.2
20260507132030 55 30 2.0 4.0 0.00 0.88 0.40 76 1015.3
20260507131030 56 27 3.0 6.0 0.00 0.91 0.40 77 1015.2
20260507130030 56 18 0.0 2.0 0.00 0.92 0.40 75 1015.2
20260507125030 56 34 2.0 4.0 0.00 0.93 0.40 77 1015.3
20260507124030 55 35 3.0 8.0 0.00 0.94 0.40 79 1015.3
20260507123030 55 19 2.0 4.0 0.00 0.94 0.40 78 1015.2
20260507122030 55 44 0.0 2.0 0.00 0.94 0.40 79 1015.2
20260507121030 55 88 0.0 1.0 0.00 0.95 0.40 79 1015.3
20260507120031 55 38 1.0 3.0 0.00 0.96 0.40 81 1015.2
20260507115030 54 35 0.0 1.0 0.00 0.97 0.40 81 1015.1
20260507114030 54 30 2.0 4.0 0.00 0.98 0.40 83 1015.1
20260507113030 55 43 1.0 3.0 0.00 0.99 0.40 80 1015.2
20260507112030 54 52 0.0 2.0 0.00 0.99 0.40 78 1015.1
20260507111030 55 173 1.0 3.0 0.00 1.00 0.40 80 1015.1
20260507110031 55 33 2.0 4.0 0.00 1.00 0.40 80 1015.1
20260507105031 55 30 2.0 7.0 0.00 1.00 0.40 80 1015.1
20260507104031 54 27 2.0 4.0 0.00 1.01 0.40 83 1015.2
20260507103030 53 157 0.0 1.0 0.00 1.01 0.40 84 1015.2
20260507102031 53 233 1.0 2.0 0.00 1.01 0.40 86 1015.2
20260507101030 52 357 0.0 2.0 0.00 1.01 0.40 89 1015.2
20260507100030 52 7 0.0 1.0 0.00 1.01 0.40 88 1015.1
20260507095030 51 31 0.0 3.0 0.00 1.01 0.40 89 1015.2
20260507094030 51 33 1.0 3.0 0.00 1.01 0.40 89 1015.1
20260507093030 51 52 1.0 3.0 0.00 1.01 0.40 89 1015.0
20260507092030 51 160 1.0 4.0 0.00 1.01 0.40 89 1015.1
20260507091030 51 121 0.0 2.0 0.00 1.01 0.40 91 1014.9
20260507090031 50 75 0.0 2.0 0.00 1.01 0.40 91 1015.0
20260507085031 51 38 1.0 4.0 0.00 1.01 0.40 90 1014.8
20260507084031 50 166 0.0 1.0 0.00 1.01 0.40 91 1014.8
20260507083030 50 93 0.0 2.0 0.00 1.01 0.40 91 1014.8
20260507082030 50 159 0.0 2.0 0.00 1.01 0.40 90 1014.7
20260507081030 50 0.0 2.0 0.01 1.01 0.40 92 1014.6
20260507080031 49 239 0.0 1.0 0.01 1.01 0.40 93 1014.6
20260507075030 49 0.0 1.0 0.02 1.01 0.40 93 1014.5
20260507074030 49 251 0.0 2.0 0.02 1.01 0.40 92 1014.4
20260507073031 48 213 0.0 2.0 0.02 1.01 0.40 93 1014.4
20260507072030 49 207 1.0 3.0 0.02 1.01 0.40 94 1014.2
20260507071030 49 147 0.0 2.0 0.01 1.00 0.39 94 1014.2
20260507070030 49 0.0 1.0 0.02 1.00 0.39 94 1014.1
20260507065030 49 0.0 0.0 0.01 0.99 0.38 94 1014.1
20260507064030 49 206 0.0 1.0 0.01 0.99 0.38 93 1014.1
20260507063030 49 200 0.0 2.0 0.03 0.99 0.38 93 1013.9
20260507062030 49 162 1.0 2.0 0.04 0.99 0.38 94 1013.9
20260507061030 48 99 0.0 1.0 0.04 0.99 0.38 95 1013.8
20260507060030 48 0.0 2.0 0.04 0.98 0.37 95 1013.8
20260507055030 48 143 0.0 1.0 0.05 0.98 0.37 96 1013.6
20260507054030 48 0.0 0.0 0.06 0.98 0.37 96 1013.6
20260507053030 48 0.0 0.0 0.05 0.96 0.35 96 1013.5
20260507052030 48 0.0 0.0 0.06 0.95 0.34 96 1013.4
20260507051030 48 0.0 1.0 0.08 0.95 0.34 97 1013.2
20260507050030 48 0.0 1.0 0.09 0.94 0.33 97 1013.1
20260507045030 48 0.0 0.0 0.10 0.93 0.32 97 1013.0
20260507044031 47 0.0 1.0 0.11 0.92 0.31 97 1012.9
20260507043031 47 0.0 0.0 0.11 0.91 0.30 97 1012.8
20260507042030 47 0.0 0.0 0.10 0.89 0.28 97 1012.8
20260507041030 47 0.0 1.0 0.09 0.87 0.26 97 1012.6
20260507040030 47 68 0.0 1.0 0.08 0.85 0.24 98 1012.6
20260507035030 47 0.0 0.0 0.07 0.83 0.22 98 1012.5
20260507034030 47 0.0 0.0 0.06 0.81 0.20 98 1012.4
20260507033030 47 0.0 0.0 0.06 0.80 0.19 97 1012.4
20260507032030 47 0.0 0.0 0.06 0.79 0.18 97 1012.2
20260507031029 47 0.0 0.0 0.05 0.78 0.17 97 1012.2
20260507030030 47 0.0 0.0 0.06 0.77 0.16 97 1012.1
20260507025030 47 0.0 0.0 0.06 0.76 0.15 97 1012.1
20260507023030 47 0.0 0.0 0.06 0.74 0.13 97 1012.0
20260507022030 47 0.0 0.0 0.06 0.73 0.12 97 1012.0
20260507021030 48 32 0.0 1.0 0.06 0.72 0.11 97 1011.9
20260507020031 48 28 0.0 2.0 0.06 0.71 0.10 97 1011.8
20260507015030 48 0.0 0.0 0.05 0.70 0.09 96 1011.8
20260507014031 48 0.0 0.0 0.04 0.68 0.07 96 1011.7
20260507013031 48 32 0.0 2.0 0.04 0.68 0.07 96 1011.7
20260507012030 48 38 0.0 2.0 0.03 0.67 0.06 96 1011.6
20260507011030 48 40 0.0 1.0 0.02 0.66 0.05 95 1011.5
20260507010031 48 0.0 0.0 0.02 0.65 0.04 95 1011.5
20260507005031 48 175 0.0 2.0 0.02 0.65 0.04 95 1011.5
20260507004030 48 187 0.0 2.0 0.01 0.64 0.03 95 1011.5
20260507003031 47 33 0.0 2.0 0.01 0.64 0.03 96 1011.5
20260507002031 47 0.0 0.0 0.01 0.64 0.03 96 1011.5
20260507001031 47 0.0 0.0 0.02 0.64 0.03 96 1011.6
20260507000030 47 100 0.0 1.0 0.01 0.63 0.02 95 1011.5
20260506235030 47 28 0.0 1.0 0.01 0.63 0.02 95 1011.7
20260506234030 47 23 1.0 2.0 0.01 0.63 0.02 95 1011.6
20260506233030 47 40 0.0 2.0 0.02 0.63 0.02 95 1011.7
20260506232030 47 0.0 1.0 0.02 0.63 0.02 95 1011.8
20260506231030 47 43 0.0 1.0 0.01 0.62 0.01 95 1011.8
20260506230031 47 0.0 1.0 0.01 0.62 0.01 95 1011.8
20260506225031 47 0.0 0.0 0.01 0.62 0.01 96 1011.8
20260506224030 47 56 0.0 2.0 0.01 0.62 0.01 96 1011.7
20260506223030 48 120 0.0 1.0 0.01 0.61 0.00 96 1011.7
20260506222030 48 37 0.0 2.0 0.01 0.61 0.00 95 1011.5
20260506221030 48 0.0 1.0 0.01 0.61 0.00 95 1011.4
20260506220031 48 0.0 1.0 0.01 0.61 0.61 94 1011.5
20260506215031 48 0.0 0.0 0.01 0.61 0.61 94 1011.3
20260506214030 48 0.0 0.0 0.01 0.61 0.61 94 1011.4
20260506213031 48 0.0 1.0 0.01 0.60 0.60 94 1011.4
20260506212030 48 207 0.0 2.0 0.01 0.60 0.60 93 1011.3
20260506211030 48 51 0.0 1.0 0.02 0.60 0.60 95 1011.3
20260506210030 48 53 0.0 1.0 0.02 0.60 0.60 95 1011.1
20260506205030 48 39 0.0 2.0 0.03 0.60 0.60 96 1011.1
20260506204030 48 0.0 1.0 0.03 0.60 0.60 96 1011.1
20260506203030 48 253 0.0 1.0 0.03 0.59 0.59 96 1011.1
20260506202030 48 33 0.0 1.0 0.03 0.59 0.59 96 1011.2
20260506201029 48 33 0.0 1.0 0.03 0.58 0.58 96 1011.1
20260506200031 48 29 1.0 3.0 0.04 0.58 0.58 96 1010.9
20260506195033 48 43 0.0 2.0 0.04 0.57 0.57 95 1010.8
20260506194030 48 33 1.0 4.0 0.06 0.57 0.57 95 1010.7
20260506193031 49 99 0.0 1.0 0.07 0.56 0.56 94 1010.6
20260506192030 49 142 0.0 1.0 0.08 0.56 0.56 94 1010.7
20260506191030 49 18 0.0 1.0 0.07 0.55 0.55 94 1010.5
20260506190031 49 0.0 1.0 0.08 0.54 0.54 95 1010.5
20260506185030 49 0.0 0.0 0.08 0.53 0.53 96 1010.4
20260506184031 49 0.0 0.0 0.07 0.51 0.51 96 1010.2
20260506183030 49 30 0.0 2.0 0.07 0.49 0.49 96 1010.1
20260506182030 49 0.0 0.0 0.07 0.50 0.48 95 1009.9
20260506181030 49 0.0 0.0 0.07 0.49 0.47 95 1009.8
20260506180030 49 216 0.0 1.0 0.08 0.48 0.46 95 1009.6
20260506175030 49 185 0.0 1.0 0.09 0.47 0.45 93 1009.5
20260506174030 49 0.0 1.0 0.09 0.45 0.43 91 1009.5
20260506173030 49 154 0.0 1.0 0.09 0.44 0.42 92 1009.4
20260506172029 49 140 0.0 2.0 0.09 0.43 0.41 92 1009.2
20260506171030 50 35 0.0 2.0 0.11 0.42 0.40 91 1009.2
20260506170031 50 177 2.0 6.0 0.10 0.40 0.38 90 1009.2
20260506165030 50 137 0.0 3.0 0.10 0.38 0.36 91 1009.1
20260506164030 50 0.0 2.0 0.09 0.36 0.34 91 1009.1
20260506163030 50 232 0.0 2.0 0.09 0.35 0.33 91 1009.0
20260506162030 50 48 0.0 1.0 0.09 0.34 0.32 93 1009.0
20260506161030 50 48 0.0 2.0 0.06 0.31 0.29 92 1009.0
20260506160031 50 28 0.0 2.0 0.06 0.30 0.28 92 1009.0
20260506155031 50 30 1.0 2.0 0.04 0.28 0.26 92 1008.9
20260506154031 51 0.0 0.0 0.03 0.27 0.25 91 1008.8
20260506153030 50 28 0.0 1.0 0.03 0.26 0.24 89 1008.7
20260506152030 51 28 1.0 2.0 0.02 0.25 0.23 89 1008.7
20260506151030 51 41 0.0 1.0 0.03 0.25 0.23 88 1008.7
20260506150031 51 53 0.0 2.0 0.04 0.25 0.22 89 1008.6
20260506145031 51 29 1.0 4.0 0.05 0.27 0.22 88 1008.6
20260506144031 51 35 0.0 2.0 0.06 0.32 0.22 88 1008.6
20260506143031 52 36 0.0 4.0 0.06 0.32 0.21 86 1008.5
20260506142030 52 21 1.0 4.0 0.08 0.32 0.21 86 1008.8
20260506141030 52 176 2.0 3.0 0.08 0.30 0.19 87 1008.6
20260506140030 53 169 1.0 4.0 0.09 0.29 0.18 86 1008.4